[[{"header":{"parameterUnit":"m.s-1","parameterCategory":1,"la1":30.2991,"la2":30.254,"lo1":-89.0895,"lo2":-89.0444,"dy":0.0017,"dx":0.0017,"nx":28,"ny":28,"refTime":"2026-02-17T09:00:00:Z","depth":0,"parameterNumber":2,"parameterNumberName":"U-component_of_WINDS"},"data":[0,0,0,0,0,0,0,0,0,0,0,0,0,0,0,0,0,0,0,0,0,0,0,0,0,0,0,0,0,0,0,0,0,0,0,0,0,0,0,0,0,0,0,0,0,0,0,0,0,0,0,0,0,0,0,0,0,0,-0.2813,-0.2814,0,-0.2875,-0.2876,-0.2876,-0.2908,-0.2908,-0.2908,-0.2908,-0.2973,-0.2975,-0.2976,0,0,0,0,0,0,0,0,0,0,0,0,0,-0.2725,-0.2727,-0.2813,-0.2814,-0.2815,-0.2875,-0.2876,-0.2877,-0.2908,-0.2908,-0.2908,-0.2908,-0.2973,-0.2975,-0.2977,0,0,0,0,0,0,0,0,0,0,0,0,0,-0.2773,-0.2727,-0.2813,-0.2838,-0.2841,-0.2875,-0.2876,-0.2877,-0.2908,-0.2908,-0.2908,-0.2908,-0.2972,-0.2974,-0.2977,-0.2992,0,0,-0.2985,-0.2986,0,0,0,0,0,0,0,0,-0.277,-0.2776,-0.2833,-0.2836,-0.2839,-0.2884,-0.2869,-0.2915,-0.2908,-0.2883,-0.2908,-0.2908,-0.2944,-0.2948,-0.296,-0.2995,-0.2997,-0.2985,-0.2986,-0.2988,-0.2988,0,0,0,0,0,0,0,-0.2767,-0.2774,-0.2838,-0.2834,-0.2838,-0.2847,-0.2853,-0.2878,-0.2912,-0.2885,-0.2887,-0.2894,-0.2945,-0.2957,-0.2962,-0.2998,-0.2985,-0.2987,-0.2989,-0.299,-0.305,-0.305,0,0,0,0,0,0,-0.2759,-0.2771,-0.2836,-0.284,-0.2804,-0.2848,-0.2856,-0.287,-0.2912,-0.2918,-0.2894,-0.2895,-0.2953,-0.2959,-0.2964,-0.2985,-0.2988,-0.299,-0.2991,-0.305,-0.305,-0.305,0,0,0,0,0,0,-0.2757,-0.2765,-0.2833,-0.2806,-0.2815,-0.285,-0.2865,-0.2871,-0.2883,-0.2919,-0.2925,-0.29,-0.2953,-0.2961,-0.2985,-0.2988,-0.2991,-0.2993,-0.305,-0.305,-0.305,-0.3026,0,0,0,0,0,0,-0.2755,-0.2764,-0.2769,-0.2806,-0.2817,-0.2852,-0.2865,-0.2872,-0.2887,-0.2889,-0.2926,-0.2932,-0.2954,-0.2981,-0.2987,-0.2991,-0.2995,-0.305,-0.305,-0.305,-0.3027,-0.3025,-0.3024,0,0,0,0,0,-0.2751,-0.276,-0.2769,-0.2777,-0.2824,-0.2852,-0.2858,-0.2883,-0.2887,-0.2893,-0.2917,-0.2931,-0.2986,-0.2983,-0.2991,-0.2995,-0.305,-0.305,-0.305,-0.3027,-0.3026,-0.3024,0,0,0,0,0,0,-0.2723,-0.2765,-0.2776,-0.2796,-0.282,-0.2857,-0.2866,-0.288,-0.2903,-0.2905,-0.2934,-0.2943,-0.2964,-0.2982,-0.2978,-0.3013,-0.302,-0.3021,-0.3,-0.2998,-0.2997,-0.2992,-0.2997,0,0,0,0,0,-0.2719,-0.2738,-0.2774,-0.2789,-0.28,-0.2831,-0.2844,-0.2861,-0.2887,-0.2898,-0.2922,-0.2948,-0.2971,-0.2986,-0.3009,-0.303,-0.3039,-0.3037,-0.3036,-0.3034,-0.3035,-0.3049,-0.3049,-0.3051,-0.3051,-0.3051,0,0,-0.2711,-0.2737,-0.2747,-0.2784,-0.2804,-0.2824,-0.2839,-0.2859,-0.2874,-0.2901,-0.2925,-0.2944,-0.2975,-0.2998,-0.3009,-0.3013,-0.3037,-0.3035,-0.3033,-0.3035,-0.3049,-0.3049,-0.3049,-0.3051,-0.3051,-0.3051,0,0,-0.2707,-0.2728,-0.2743,-0.2763,-0.2794,-0.2815,-0.2818,-0.2854,-0.2867,-0.2892,-0.2913,-0.2932,-0.2971,-0.2992,-0.3008,-0.3013,-0.3028,-0.302,-0.3013,-0.3026,-0.3026,-0.3026,-0.3029,-0.3029,-0.3021,-0.3021,-0.3021,0,-0.2694,-0.2724,-0.2749,-0.2768,-0.2784,-0.2809,-0.2825,-0.2844,-0.2881,-0.2892,-0.2896,-0.2947,-0.2969,-0.2997,-0.2999,-0.3011,-0.3017,-0.3016,-0.3024,-0.3024,-0.3025,-0.3027,-0.3028,-0.302,-0.302,-0.302,-0.302,0,-0.2706,-0.2727,-0.2735,-0.277,-0.2787,-0.2804,-0.2833,-0.2848,-0.2864,-0.2884,-0.291,-0.2938,-0.2967,-0.2975,-0.2991,-0.3007,-0.3009,-0.3018,-0.3026,-0.3023,-0.3026,-0.3027,-0.3019,-0.3019,-0.3019,-0.302,0,0,-0.2685,-0.2735,-0.2737,-0.2754,-0.279,-0.2807,-0.2826,-0.2855,-0.2867,-0.2892,-0.291,-0.2943,-0.2952,-0.297,-0.2989,-0.3,-0.3003,-0.3008,-0.301,-0.3007,-0.3024,-0.3016,-0.3017,-0.3013,-0.3014,-0.3014,-0.3021,0,-0.2687,-0.2721,-0.2745,-0.2771,-0.2791,-0.2815,-0.2832,-0.2857,-0.2876,-0.2897,-0.2919,-0.2943,-0.2953,-0.2964,-0.2976,-0.3,-0.3007,-0.3,-0.3031,-0.3032,-0.3022,-0.3019,-0.3011,-0.3016,-0.3023,-0.3023,-0.3023,0,-0.2693,-0.2717,-0.2744,-0.2779,-0.2789,-0.2803,-0.2832,-0.2851,-0.288,-0.2894,-0.2915,-0.2934,-0.2956,-0.2962,-0.2994,-0.2989,-0.3003,-0.3017,-0.3018,-0.3022,-0.3027,-0.3023,-0.3019,-0.302,-0.3025,-0.3025,-0.3025,0,-0.2675,-0.2715,-0.2736,-0.275,-0.2791,-0.2801,-0.2819,-0.2848,-0.2864,-0.289,-0.2901,-0.2929,-0.2945,-0.2967,-0.2993,-0.2995,-0.3023,-0.3031,-0.3036,-0.3035,-0.304,-0.304,-0.3039,-0.3049,-0.3049,-0.3049,-0.3049,0,-0.2674,-0.269,-0.2729,-0.2743,-0.2762,-0.279,-0.2808,-0.2828,-0.2854,-0.2873,-0.2896,-0.2913,-0.2947,-0.2969,-0.299,-0.3014,-0.302,-0.3033,-0.3038,-0.3031,-0.3029,-0.3041,-0.3041,-0.3049,-0.3049,-0.3049,-0.3049,0,-0.2658,-0.2685,-0.271,-0.2747,-0.2757,-0.277,-0.2802,-0.2817,-0.2838,-0.2862,-0.2869,-0.2903,-0.293,-0.2958,-0.2995,-0.3009,-0.3032,-0.304,-0.3022,-0.3025,-0.3029,-0.3028,-0.3035,-0.3038,-0.3046,-0.3046,-0.3046,0,-0.2656,-0.2669,-0.2707,-0.2721,-0.2738,-0.276,-0.2777,-0.2806,-0.2822,-0.2857,-0.2868,-0.2896,-0.292,-0.2963,-0.2991,-0.302,-0.3028,-0.3029,-0.3033,-0.3025,-0.3029,-0.3028,-0.303,-0.3027,-0.3027,-0.3027,-0.3027,0,-0.2649,-0.2662,-0.2684,-0.2712,-0.2731,-0.2755,-0.2779,-0.2789,-0.2823,-0.2841,-0.2868,-0.2887,-0.2925,-0.2953,-0.2985,-0.3005,-0.3022,-0.3025,-0.3028,-0.3021,-0.301,-0.3017,-0.3019,-0.3025,-0.3025,-0.3025,-0.3025,-0.3025,-0.264,-0.2653,-0.2682,-0.2707,-0.2729,-0.2751,-0.2767,-0.279,-0.2813,-0.2846,-0.2862,-0.2889,-0.292,-0.2965,-0.2984,-0.3007,-0.3012,-0.3016,-0.3017,-0.3018,-0.3016,-0.3006,-0.3013,-0.3013,-0.3013,-0.3013,-0.3013,0,-0.2635,-0.2655,-0.2678,-0.2711,-0.2731,-0.2745,-0.2773,-0.2789,-0.2813,-0.2839,-0.2863,-0.2895,-0.2923,-0.2954,-0.2984,-0.2997,-0.3005,-0.3004,-0.3003,-0.3008,-0.3009,-0.3004,-0.2996,-0.2996,-0.2996,-0.2996,-0.2996,-0.2996,-0.2635,-0.2657,-0.2674,-0.2708,-0.2729,-0.2755,-0.277,-0.2792,-0.2813,-0.2848,-0.2871,-0.2891,-0.292,-0.2953,-0.2979,-0.2988,-0.2998,-0.2994,-0.3005,-0.3006,-0.3008,-0.3009,-0.3004,-0.2996,-0.2996,-0.3002,-0.3002,-0.3002]},{"header":{"parameterUnit":"m.s-1","parameterCategory":1,"la1":30.2991,"la2":30.254,"lo1":-89.0895,"lo2":-89.0444,"dy":0.0017,"dx":0.0017,"nx":28,"ny":28,"refTime":"2026-02-17T09:00:00:Z","depth":0,"parameterNumber":3,"parameterNumberName":"V-component_of_WINDS"},"data":[0,0,0,0,0,0,0,0,0,0,0,0,0,0,0,0,0,0,0,0,0,0,0,0,0,0,0,0,0,0,0,0,0,0,0,0,0,0,0,0,0,0,0,0,0,0,0,0,0,0,0,0,0,0,0,0,0,0,4.2641,4.2642,0,4.2714,4.2715,4.2715,4.2727,4.2726,4.2725,4.2725,4.2795,4.2797,4.28,0,0,0,0,0,0,0,0,0,0,0,0,0,4.2506,4.2509,4.2641,4.2642,4.2643,4.2714,4.2715,4.2716,4.2727,4.2726,4.2725,4.2725,4.2794,4.2797,4.28,0,0,0,0,0,0,0,0,0,0,0,0,0,4.257,4.251,4.2641,4.2657,4.2659,4.2713,4.2715,4.2716,4.2727,4.2726,4.2725,4.2724,4.2793,4.2797,4.28,4.2842,0,0,4.2812,4.2813,0,0,0,0,0,0,0,0,4.2567,4.2575,4.2654,4.2656,4.2659,4.271,4.2693,4.2758,4.2727,4.2701,4.2725,4.2724,4.2767,4.2773,4.2789,4.2845,4.2848,4.2812,4.2814,4.2816,4.2817,0,0,0,0,0,0,0,4.2562,4.2572,4.267,4.2655,4.2658,4.2659,4.2667,4.2705,4.2738,4.2703,4.2704,4.2713,4.2768,4.2785,4.279,4.2849,4.2812,4.2815,4.2817,4.2819,4.2943,4.2944,0,0,0,0,0,0,4.2556,4.2569,4.2667,4.2672,4.261,4.2662,4.2671,4.2695,4.2738,4.2744,4.2714,4.2713,4.2779,4.2786,4.2793,4.2844,4.2816,4.2819,4.2821,4.2942,4.2943,4.2944,0,0,0,0,0,0,4.2553,4.2564,4.2664,4.2621,4.2633,4.2666,4.2692,4.2697,4.2713,4.2746,4.2752,4.2725,4.2779,4.2788,4.283,4.2847,4.2821,4.2824,4.294,4.2942,4.2943,4.2947,0,0,0,0,0,0,4.2549,4.2563,4.2581,4.2621,4.2636,4.2702,4.2693,4.2699,4.272,4.272,4.2758,4.2763,4.2779,4.2824,4.2833,4.2851,4.2827,4.2939,4.2941,4.2943,4.2946,4.2949,4.2952,0,0,0,0,0,4.2544,4.2578,4.2582,4.2594,4.2659,4.2703,4.2711,4.2729,4.2722,4.2739,4.2759,4.2762,4.2843,4.2828,4.2839,4.2858,4.2938,4.294,4.2943,4.2945,4.2948,4.2952,0,0,0,0,0,0,4.2538,4.2584,4.2588,4.2637,4.2666,4.2705,4.2727,4.2733,4.2764,4.2762,4.2782,4.279,4.2831,4.2849,4.2831,4.29,4.289,4.2894,4.2888,4.2891,4.2894,4.2889,4.283,0,0,0,0,0,4.2543,4.2577,4.2614,4.2653,4.2668,4.2695,4.2715,4.2726,4.2756,4.2768,4.2792,4.282,4.2852,4.2872,4.2903,4.2948,4.2956,4.2966,4.2969,4.2971,4.2975,4.2999,4.3004,4.2952,4.2952,4.2952,0,0,4.2553,4.2582,4.2602,4.2653,4.2677,4.271,4.2705,4.274,4.2764,4.2773,4.2815,4.2833,4.2866,4.2909,4.2929,4.2925,4.2991,4.2974,4.2976,4.2979,4.3002,4.3007,4.3011,4.2954,4.2953,4.2953,0,0,4.2587,4.2613,4.2648,4.2672,4.2709,4.2726,4.2735,4.2772,4.2785,4.2828,4.2835,4.2862,4.2917,4.294,4.2958,4.2999,4.3003,4.3009,4.3024,4.3047,4.3051,4.3055,4.3069,4.3074,4.3012,4.3012,4.3012,0,4.2594,4.2646,4.2665,4.27,4.2722,4.2732,4.2767,4.2789,4.2833,4.2847,4.2842,4.291,4.2932,4.2981,4.2991,4.3006,4.3015,4.3005,4.3049,4.3053,4.3057,4.3071,4.3076,4.3013,4.3013,4.3013,4.3013,0,4.2652,4.2687,4.2711,4.2755,4.2779,4.2814,4.2837,4.2859,4.2867,4.2885,4.2927,4.2954,4.299,4.3002,4.3011,4.3052,4.3048,4.3045,4.3035,4.3062,4.3075,4.3081,4.3014,4.3013,4.3013,4.3013,0,0,4.2686,4.274,4.2748,4.2768,4.2808,4.2835,4.2869,4.2906,4.2924,4.2953,4.2982,4.3027,4.3025,4.3046,4.3057,4.3077,4.3107,4.3072,4.3073,4.3078,4.3153,4.3155,4.3161,4.3109,4.311,4.3111,4.315,0,4.2725,4.2789,4.2807,4.2859,4.2892,4.2901,4.293,4.2957,4.2974,4.3002,4.302,4.3052,4.3047,4.306,4.308,4.3099,4.3123,4.3097,4.3135,4.3136,4.3127,4.3168,4.317,4.3206,4.3156,4.3157,4.3157,0,4.278,4.2812,4.2869,4.2904,4.2918,4.2945,4.2979,4.3007,4.3036,4.3047,4.307,4.3079,4.3113,4.31,4.3147,4.3129,4.3145,4.3156,4.3158,4.3163,4.3149,4.3174,4.3218,4.3223,4.3166,4.3165,4.3164,0,4.2799,4.2856,4.2897,4.2913,4.2956,4.2974,4.2992,4.3022,4.3042,4.3071,4.3085,4.3117,4.3135,4.3159,4.3175,4.3165,4.322,4.3209,4.3229,4.3228,4.3241,4.324,4.3288,4.325,4.325,4.325,4.325,0,4.2842,4.2876,4.2906,4.2932,4.2969,4.2988,4.3024,4.3043,4.3068,4.3096,4.3105,4.313,4.315,4.3178,4.319,4.3226,4.3234,4.3243,4.3246,4.3242,4.3241,4.3254,4.3252,4.3252,4.3251,4.3251,4.3251,0,4.287,4.2892,4.2937,4.2974,4.2983,4.301,4.304,4.3064,4.308,4.3115,4.3124,4.3149,4.3182,4.3201,4.3242,4.325,4.329,4.3292,4.3281,4.3282,4.3301,4.3299,4.336,4.3368,4.3324,4.3325,4.3325,0,4.2896,4.2923,4.2962,4.2982,4.3001,4.3032,4.3054,4.3072,4.3094,4.3129,4.3148,4.3182,4.321,4.3261,4.3282,4.3313,4.3316,4.3335,4.332,4.3316,4.3316,4.3314,4.3317,4.3337,4.3338,4.3338,4.3338,0,4.294,4.2949,4.298,4.3015,4.304,4.3068,4.3095,4.311,4.3133,4.3156,4.3191,4.3212,4.3254,4.3287,4.332,4.3336,4.3341,4.3342,4.3349,4.3346,4.3338,4.3342,4.3288,4.3341,4.3341,4.3341,4.334,4.334,4.2968,4.2992,4.3023,4.3057,4.3079,4.3105,4.3129,4.3148,4.3178,4.3215,4.3223,4.3259,4.3286,4.333,4.3348,4.3375,4.3371,4.338,4.3383,4.3385,4.3386,4.3333,4.3381,4.3381,4.3381,4.3381,4.3381,0,4.3012,4.3032,4.3063,4.3102,4.3128,4.3131,4.3161,4.3182,4.3214,4.324,4.3268,4.3306,4.3338,4.3361,4.3393,4.341,4.3412,4.3417,4.3416,4.342,4.3387,4.3379,4.3415,4.3415,4.3415,4.3415,4.3415,4.3415,4.3038,4.3078,4.3091,4.3142,4.3161,4.3198,4.3215,4.3237,4.3258,4.3301,4.3328,4.3343,4.3368,4.3401,4.343,4.3435,4.3447,4.3451,4.3457,4.3426,4.3423,4.3419,4.3411,4.3454,4.3454,4.3488,4.3489,4.3489]}]]